TimeCST,TemperatureF,Dew PointF,Humidity,Sea Level PressureIn,VisibilityMPH,Wind Direction,Wind SpeedMPH,Gust SpeedMPH,PrecipitationIn,Events,Conditions,WindDirDegrees,DateUTC
12:53 AM,43.0,30.0,60,30.26,10.0,North,3.5,-,N/A,,Clear,10,2013-02-20 06:53:00
1:53 AM,42.1,28.9,60,30.25,10.0,NNE,4.6,-,N/A,,Clear,20,2013-02-20 07:53:00
2:53 AM,39.9,28.0,63,30.21,10.0,ENE,4.6,-,N/A,,Clear,60,2013-02-20 08:53:00
3:53 AM,41.0,26.1,55,30.15,10.0,ENE,9.2,-,N/A,,Clear,60,2013-02-20 09:53:00
4:53 AM,41.0,25.0,53,30.18,10.0,ENE,4.6,-,N/A,,Clear,60,2013-02-20 10:53:00
5:53 AM,39.9,26.1,58,30.22,10.0,Calm,Calm,-,N/A,,Clear,0,2013-02-20 11:53:00
6:53 AM,39.0,27.0,62,30.25,10.0,Calm,Calm,-,N/A,,Clear,0,2013-02-20 12:53:00
7:53 AM,39.9,28.0,63,30.25,10.0,Calm,Calm,-,N/A,,Clear,0,2013-02-20 13:53:00
8:53 AM,45.0,27.0,49,30.27,10.0,ENE,6.9,-,N/A,,Clear,70,2013-02-20 14:53:00
9:53 AM,48.0,25.0,41,30.26,10.0,ESE,6.9,16.1,N/A,,Clear,110,2013-02-20 15:53:00
10:53 AM,50.0,21.0,32,30.23,10.0,East,11.5,-,N/A,,Clear,90,2013-02-20 16:53:00
11:53 AM,52.0,23.0,32,30.17,10.0,East,8.1,16.1,N/A,,Clear,80,2013-02-20 17:53:00
12:53 PM,53.1,23.0,31,30.17,10.0,Variable,5.8,-,N/A,,Clear,0,2013-02-20 18:53:00
1:53 PM,55.9,23.0,28,30.12,10.0,East,4.6,-,N/A,,Clear,90,2013-02-20 19:53:00
2:53 PM,57.0,23.0,27,30.12,10.0,Variable,4.6,-,N/A,,Clear,0,2013-02-20 20:53:00
3:53 PM,57.0,24.1,28,30.12,10.0,Calm,Calm,-,N/A,,Overcast,0,2013-02-20 21:53:00
4:53 PM,57.0,26.1,30,30.12,10.0,East,3.5,-,N/A,,Mostly Cloudy,90,2013-02-20 22:53:00
5:53 PM,53.1,28.9,40,30.10,10.0,East,4.6,-,N/A,,Clear,80,2013-02-20 23:53:00
6:53 PM,50.0,28.0,43,30.09,10.0,ESE,3.5,-,N/A,,Clear,110,2013-02-21 00:53:00
7:53 PM,48.0,28.0,46,30.09,10.0,East,4.6,-,N/A,,Clear,80,2013-02-21 01:53:00
8:53 PM,46.9,27.0,46,30.09,10.0,ENE,4.6,-,N/A,,Clear,70,2013-02-21 02:53:00
9:53 PM,46.0,26.1,46,30.08,10.0,Variable,3.5,-,N/A,,Clear,0,2013-02-21 03:53:00
10:53 PM,45.0,26.1,48,30.05,10.0,Variable,4.6,-,N/A,,Clear,0,2013-02-21 04:53:00
11:25 PM,44.6,26.6,49,30.06,10.0,Variable,4.6,-,N/A,,Mostly Cloudy,0,2013-02-21 05:25:00
11:53 PM,46.0,26.1,46,30.05,10.0,ENE,5.8,-,N/A,,Overcast,70,2013-02-21 05:53:00